Date String (YYYY-MM-DD hh:mm:ss) UTC,Instrument flags,Ambient pressure (hPa),Sample flow (lpm),Bypass flow (lpm),Sample temperature (°C),Ambient temperature (°C),ASC tube jacket temperature (°C),LED temperature (°C),Box temperature (°C),Sample RH (%),Span deviation,Mass concentration (μg/m³),Mass concentration (μg/m³),Mass concentration (μg/m³)
DateTimeUTC,F1_M11,P_M11,Q1_M11,Q2_M11,T1_M11,T2_M11,T3_M11,T4_M11,T5_M11,U1_M11,ZSPAN_M11,X0_M11,X2_M11,X1_M11
2021-09-21 21:00:00,,0838.0,4.99,0.00,29.6,28.8,00.0,38.7,31.4,13.2,0000.0,0009.36,0003.74,0003.44
2021-09-21 21:01:00,,0838.0,5.00,0.00,29.7,28.9,00.0,38.7,31.4,13.1,0000.0,0009.30,0003.76,0003.46
2021-09-21 21:02:00,,0838.0,5.00,0.00,29.7,28.9,00.0,38.7,31.5,13.1,0000.0,0009.34,0003.79,0003.49
2021-09-21 21:03:00,,0838.0,5.01,0.00,29.7,28.9,00.0,38.7,31.5,13.2,0000.0,0008.97,0003.83,0003.54
2021-09-21 21:04:00,,0838.0,5.00,0.00,29.7,29.0,00.0,38.8,31.5,13.1,0000.0,0008.77,0003.87,0003.56
2021-09-21 21:05:00,,0838.0,5.01,0.00,29.7,29.0,00.0,38.8,31.5,13.2,0000.0,0009.03,0003.91,0003.57
2021-09-21 21:06:00,,0838.0,4.99,0.00,29.7,29.0,00.0,38.8,31.5,13.2,0000.0,0009.84,0003.95,0003.60
2021-09-21 21:07:00,,0838.0,5.00,0.00,29.7,29.0,00.0,38.8,31.5,12.9,0000.0,0009.96,0004.02,0003.65
2021-09-21 21:08:00,,0838.0,5.01,0.00,29.7,29.0,00.0,38.8,31.5,13.2,0000.0,0010.02,0004.08,0003.70
2021-09-21 21:09:00,,0838.0,4.99,0.00,29.8,29.0,00.0,38.8,31.5,13.1,0000.0,0009.11,0004.10,0003.73
2021-09-21 21:10:00,,0838.0,5.01,0.00,29.8,29.0,00.0,38.8,31.5,12.7,0000.0,0008.89,0004.18,0003.78
2021-09-21 21:11:00,,0838.0,5.02,0.00,29.8,29.1,00.0,38.8,31.5,12.6,0000.0,0009.22,0004.25,0003.84
2021-09-21 21:12:00,,0838.0,5.01,0.00,29.8,29.1,00.0,38.8,31.5,12.7,0000.0,0009.50,0004.30,0003.90
2021-09-21 21:13:00,,0838.0,4.99,0.00,29.8,29.1,00.0,38.8,31.5,12.7,0000.0,0009.82,0004.34,0003.94
2021-09-21 21:14:00,,0838.0,5.01,0.00,29.8,29.1,00.0,38.8,31.6,12.8,0000.0,0009.96,0004.37,0003.96
2021-09-21 21:15:00,,0837.9,4.99,0.00,29.8,27.8,00.0,38.8,31.3,12.8,0000.0,0009.76,0004.40,0003.99
2021-09-21 21:16:00,,0837.9,5.00,0.00,29.7,26.6,00.0,38.8,30.9,12.9,0000.0,0009.84,0004.41,0004.03
2021-09-21 21:17:00,,0837.9,5.02,0.00,29.6,26.6,00.0,38.7,30.9,13.0,0000.0,0010.46,0004.39,0004.04
2021-09-21 21:18:00,,0837.9,4.98,0.00,29.5,26.9,00.0,38.7,30.9,13.2,0000.0,0010.77,0004.42,0004.04
2021-09-21 21:19:00,,0837.8,5.01,0.00,29.5,27.3,00.0,38.7,31.1,13.0,0000.0,0010.67,0004.38,0004.04
2021-09-21 21:20:00,,0837.8,5.00,0.00,29.5,27.7,00.0,38.7,31.1,13.1,0000.0,0011.33,0004.38,0004.05
2021-09-21 21:21:00,,0837.8,5.00,0.00,29.5,27.9,00.0,38.6,31.2,13.0,0000.0,0012.15,0004.37,0004.04
2021-09-21 21:22:00,,0837.8,4.99,0.00,29.6,28.1,00.0,38.6,31.3,13.3,0000.0,0012.37,0004.37,0004.03
2021-09-21 21:23:00,,0837.8,5.01,0.00,29.6,28.3,00.0,38.7,31.3,13.3,0000.0,0012.38,0004.37,0004.02
2021-09-21 21:24:00,,0837.8,5.00,0.00,29.6,28.5,00.0,38.7,31.3,13.3,0000.0,0012.21,0004.38,0004.02
2021-09-21 21:25:00,,0837.8,5.01,0.00,29.6,28.6,00.0,38.7,31.4,13.2,0000.0,0012.11,0004.42,0004.06
2021-09-21 21:26:00,,0837.8,5.00,0.00,29.6,28.6,00.0,38.7,31.3,13.4,0000.0,0012.38,0004.44,0004.08
2021-09-21 21:27:00,,0837.8,4.99,0.00,29.6,28.7,00.0,38.7,31.3,13.4,0000.0,0012.39,0004.49,0004.09
2021-09-21 21:28:00,,0837.7,5.00,0.00,29.6,28.8,00.0,38.7,31.4,13.3,0000.0,0011.08,0004.54,0004.10
2021-09-21 21:29:00,,0837.8,5.00,0.00,29.6,28.8,00.0,38.7,31.4,13.1,0000.0,0010.67,0004.56,0004.15
2021-09-21 21:30:00,,0837.8,5.00,0.00,29.7,28.9,00.0,38.7,31.4,13.0,0000.0,0010.66,0004.62,0004.19
2021-09-21 21:31:00,,0837.8,5.01,0.00,29.7,28.9,00.0,38.7,31.4,13.1,0000.0,0011.19,0004.70,0004.24
2021-09-21 21:32:00,,0837.8,4.99,0.00,29.7,28.9,00.0,38.7,31.5,13.1,0000.0,0010.67,0004.75,0004.29
2021-09-21 21:33:00,,0837.8,5.00,0.00,29.7,29.0,00.0,38.8,31.5,13.2,0000.0,0010.41,0004.80,0004.35
2021-09-21 21:34:00,,0837.8,5.00,0.00,29.7,29.0,00.0,38.8,31.5,13.0,0000.0,0010.27,0004.91,0004.46
2021-09-21 21:35:00,,0837.8,5.00,0.00,29.8,29.0,00.0,38.8,31.5,12.8,0000.0,0010.23,0004.99,0004.56
2021-09-21 21:36:00,,0837.8,5.00,0.00,29.8,29.1,00.0,38.8,31.6,12.9,0000.0,0010.64,0005.05,0004.64
2021-09-21 21:37:00,,0837.8,5.01,0.00,29.8,29.1,00.0,38.8,31.6,13.0,0000.0,0010.60,0005.13,0004.71
2021-09-21 21:38:00,,0837.8,4.99,0.00,29.8,29.1,00.0,38.8,31.6,12.9,0000.0,0010.48,0005.12,0004.72
2021-09-21 21:39:00,,0837.8,5.00,0.00,29.8,27.7,00.0,38.8,31.2,12.8,0000.0,0010.51,0005.15,0004.76
2021-09-21 21:40:00,,0837.8,5.01,0.00,29.6,26.4,00.0,38.7,30.8,12.7,0000.0,0010.58,0005.20,0004.80
2021-09-21 21:41:00,,0837.7,5.00,0.00,29.5,26.5,00.0,38.7,30.9,12.7,0000.0,0011.38,0005.27,0004.87
2021-09-21 21:42:00,,0837.8,4.99,0.00,29.5,26.9,00.0,38.7,31.0,12.9,0000.0,0010.98,0005.32,0004.93
2021-09-21 21:43:00,,0837.8,4.99,0.00,29.5,27.3,00.0,38.7,31.1,12.8,0000.0,0011.08,0005.32,0004.94
2021-09-21 21:44:00,,0837.8,5.01,0.00,29.5,27.6,00.0,38.6,31.2,12.9,0000.0,0011.37,0005.31,0004.92
2021-09-21 21:45:00,,0837.8,5.01,0.00,29.5,27.9,00.0,38.6,31.2,13.1,0000.0,0011.25,0005.26,0004.89
2021-09-21 21:46:00,,0837.8,5.00,0.00,29.5,28.1,00.0,38.6,31.2,13.3,0000.0,0011.78,0005.24,0004.84
2021-09-21 21:47:00,,0837.8,5.00,0.00,29.5,28.2,00.0,38.6,31.3,12.9,0000.0,0011.38,0005.22,0004.80
2021-09-21 21:48:00,,0837.7,5.00,0.00,29.5,28.4,00.0,38.6,31.3,12.8,0000.0,0011.25,0005.21,0004.81
2021-09-21 21:49:00,,0837.7,5.00,0.00,29.5,28.5,00.0,38.6,31.3,12.7,0000.0,0011.37,0005.28,0004.86
2021-09-21 21:50:00,,0837.7,5.00,0.00,29.5,28.6,00.0,38.6,31.3,12.7,0000.0,0011.49,0005.33,0004.90
2021-09-21 21:51:00,,0837.6,5.00,0.00,29.6,28.7,00.0,38.6,31.4,12.7,0000.0,0011.50,0005.31,0004.89
2021-09-21 21:52:00,,0837.7,5.01,0.00,29.6,28.7,00.0,38.6,31.4,12.7,0000.0,0010.96,0005.26,0004.84
2021-09-21 21:53:00,,0837.7,4.99,0.00,29.6,28.8,00.0,38.7,31.4,12.8,0000.0,0010.54,0005.21,0004.79
2021-09-21 21:54:00,,0837.6,5.01,0.00,29.7,28.9,00.0,38.7,31.5,12.8,0000.0,0010.04,0005.22,0004.78
2021-09-21 21:55:00,,0837.7,5.00,0.00,29.7,28.9,00.0,38.7,31.5,12.7,0000.0,0009.64,0005.23,0004.79
2021-09-21 21:56:00,,0837.7,5.01,0.00,29.7,29.0,00.0,38.7,31.6,12.5,0000.0,0009.81,0005.23,0004.78
2021-09-21 21:57:00,,0837.7,4.99,0.00,29.8,29.0,00.0,38.7,31.6,12.5,0000.0,0009.76,0005.22,0004.77
2021-09-21 21:58:00,,0837.8,5.01,0.00,29.8,29.1,00.0,38.7,31.6,12.6,0000.0,0009.78,0005.17,0004.73
2021-09-21 21:59:00,,0837.8,4.99,0.00,29.8,29.2,00.0,38.8,31.7,12.5,0000.0,0010.06,0005.10,0004.64
